User: anonymous   Login
Location: NJAA Observatory
(40.6819°N, 74.8979°W)
Time: 19:10:04
(UTC-05:00)
Language:

Iridium 4 - Orbit

View from above orbital plane
View from above orbital plane
View from above satellite
View from above satellite

Ground track
Ground track

The orbit data is extracted from the following two-line orbital elements,

1 24796U 97020E   14353.50263618  .00000722  00000-0  24775-3 0  1286
2 24796 086.3957 339.0437 0002218 107.4105 043.1759 14.34799437922708
Epoch (UTC): 19 December 2014 12:03:47
Eccentricity: 0.0002218
inclination: 86.3957°
perigee height: 774 km
apogee height: 777 km
right ascension of ascending node: 339.0437°
argument of perigee: 107.4105°
revolutions per day: 14.34799437
mean anomaly at epoch: 43.1759°
orbit number at epoch: 92270

The dashed part of the orbit path shows where the satellite is in the earth's shadow,  

DLR